Location: USNO
(38.9242°N, 77.0663°W)
Time: 23:32:08
(UTC-05:00)

OTV 5 (USA 277) - Pass Details

Date: 07 October 2017
Orbit: 404 x 417 km, 43.0° (Epoch: 07 September)

Event Time Altitude Azimuth Distance (km) Brightness Sun altitude
Rises 20:38:09 0° 229° (SW) 2,343 ? -23.5°
Reaches altitude 10° 20:40:19 10° 222° (SW) 1,482 ? -23.9°
Enters shadow 20:41:10 16° 216° (SW) 1,164 ? -24.1°
